Theta_e
321 321 321 325 328 330 331 334 337 339 341 343 342 342 343 344 344 344 344 345 343 342 343 344 344 341 339 341 340 339 341 341 341 339 339 338 337 335 334 332 336 330 333
320 320 319 323 325 327 328 329 332 335 339 341 342 342 342 343 344 344 345 343 344 344 342 343 343 342 340 342 341 341 340 340 340 339 339 339 338 335 334 334 335 332 333
319 318 318 320 322 324 326 327 328 331 335 339 341 341 341 341 343 343 343 343 343 343 343 344 342 342 341 342 341 340 340 339 338 337 338 335 334 335 334 333 332 331 329
319 316 316 317 320 321 323 325 327 328 331 336 338 340 340 340 342 342 343 343 342 344 343 344 343 341 341 341 340 340 339 337 337 336 332 331 332 335 335 333 332 331 328
317 314 314 316 318 319 319 322 324 326 328 332 335 339 339 339 339 341 342 343 342 343 342 343 343 342 340 339 339 340 338 336 334 332 332 335 333 335 336 333 330 329 329
315 313 314 313 314 316 317 319 321 323 325 328 332 335 338 338 338 338 340 341 341 341 342 342 343 341 339 338 338 338 336 334 333 330 331 333 332 334 334 332 330 327 326
313 312 312 309 311 312 314 316 317 319 322 324 327 331 334 336 336 337 337 339 340 340 340 342 342 340 338 338 338 336 335 333 331 328 328 329 329 332 332 330 328 326 324
312 311 311 310 307 308 310 312 313 315 317 320 323 326 328 332 334 335 334 335 336 339 339 340 341 339 337 337 336 336 333 330 328 327 327 327 331 331 330 327 324 322 321
312 311 311 310 309 308 307 308 310 312 313 316 319 321 324 325 329 332 332 330 333 333 337 338 338 335 334 333 334 332 328 327 327 326 325 326 331 329 328 324 322 320 322
311 311 310 310 309 309 310 308 307 309 310 312 315 317 320 323 328 330 329 329 330 332 335 337 335 333 333 332 331 327 325 325 324 324 325 326 330 328 326 323 320 322 322
311 310 310 309 309 309 308 306 309 311 310 312 315 318 320 324 326 328 328 328 328 329 332 331 334 332 331 329 328 324 323 324 325 325 325 329 329 327 324 322 322 322 322
310 310 310 309 308 308 307 307 307 306 307 308 310 313 319 321 323 324 323 324 326 326 329 332 330 328 327 326 324 323 324 326 325 328 327 329 329 324 323 324 323 323 325
309 310 310 309 308 307 307 306 306 305 306 306 308 310 316 318 322 326 327 329 327 321 330 328 327 324 325 323 322 324 325 326 327 328 326 327 327 325 325 324 325 327 329
309 309 310 309 307 307 307 306 305 304 304 304 305 308 313 315 320 322 325 328 328 330 329 323 321 321 321 322 322 322 323 324 324 325 322 323 327 326 327 329 329 330 329
308 309 310 309 307 306 306 306 305 304 304 305 306 306 310 314 316 321 321 326 327 328 326 324 322 320 320 319 321 321 321 323 324 323 324 320 326 328 329 328 328 329 328
308 308 310 308 307 306 305 305 304 304 305 306 307 306 309 314 316 317 321 323 324 324 324 321 320 319 319 318 318 320 321 322 323 323 324 322 323 326 328 328 329 331 330
307 308 307 307 305 304 303 304 303 303 304 305 306 307 309 312 314 315 319 321 323 324 322 320 319 319 318 319 317 317 319 321 322 321 321 321 323 322 326 327 327 328 329
305 304 305 302 303 303 303 303 303 303 304 305 307 308 308 311 313 314 316 319 322 323 322 319 317 317 317 317 316 316 317 318 319 320 320 321 324 323 321 323 324 324 324
304 304 303 302 301 302 303 303 303 303 305 306 306 307 307 310 312 313 314 317 319 321 321 318 317 317 315 314 315 316 317 318 319 318 319 322 320 319 317 316 316 319 321
303 302 301 301 300 301 302 302 303 305 305 306 306 307 308 310 310 311 314 315 318 320 318 318 316 317 315 313 314 315 316 318 319 319 320 318 316 315 315 316 315 313 316
301 300 299 299 300 300 299 299 301 301 302 303 305 306 307 309 310 311 313 312 316 318 317 316 316 315 313 316 313 308 308 308 307 308 311 310 308 308 310 312 311 310 311
300 300 299 298 299 299 299 300 301 301 302 302 304 305 307 308 308 309 312 312 314 317 318 315 314 313 314 316 310 307 303 304 304 303 303 304 303 305 305 307 307 307 308
300 299 298 298 298 298 299 300 301 302 302 302 303 304 305 306 308 309 311 313 314 315 317 315 314 314 311 314 312 311 304 301 301 302 300 301 302 303 305 305 303 304 304
300 299 297 297 297 297 299 299 298 297 297 300 301 304 304 306 306 308 310 311 311 314 316 317 317 316 314 311 313 312 313 307 302 298 300 299 300 301 303 302 301 301 303
298 299 298 296 296 297 299 299 298 298 299 302 303 300 304 304 304 306 307 308 310 313 315 318 317 316 315 313 313 310 310 311 309 304 298 297 297 298 299 299 299 299 300
298 298 297 295 295 297 298 299 298 297 298 300 300 302 302 302 302 304 306 306 308 311 313 318 318 317 316 316 314 312 310 309 307 307 302 299 298 296 296 297 298 298 299
Wind_Speed
7 7 10 13 14 15 16 16 17 18 19 14 11 10 8 7 8 8 11 12 12 12 12 12 13 12 12 11 13 13 13 15 15 14 14 14 15 14 13 11 10 12 13
3 6 6 12 13 14 14 15 16 16 17 19 13 11 10 9 9 8 11 12 12 13 13 14 14 14 13 13 11 11 11 15 14 12 12 11 14 14 13 13 13 12 13
4 6 7 12 12 13 14 15 15 16 16 16 16 12 11 12 12 10 10 12 12 12 14 15 16 15 13 13 14 11 17 15 12 12 13 13 12 14 14 14 12 12 11
3 6 7 10 12 13 13 14 14 15 15 15 15 12 11 12 13 13 12 12 13 15 17 17 16 14 15 14 15 15 16 15 12 11 9 11 10 14 16 15 13 12 10
2 5 7 10 11 12 12 13 13 15 15 15 15 15 11 9 10 14 14 14 14 15 17 17 16 17 18 16 15 16 16 13 10 8 11 9 8 10 16 14 11 11 9
2 4 6 8 10 11 12 13 13 14 15 14 15 16 16 11 8 8 13 15 15 16 18 16 17 21 19 18 17 18 16 13 9 4 12 8 10 13 14 14 11 9 9
3 4 4 4 8 10 11 12 13 14 15 15 15 15 15 13 10 9 9 10 15 15 17 17 21 24 20 19 19 18 14 11 8 8 9 10 9 11 12 11 9 9 8
4 2 3 0 2 7 8 9 12 13 14 14 14 14 14 15 12 9 7 9 11 14 16 16 18 23 22 19 18 15 12 9 7 9 8 9 11 10 11 10 8 8 7
3 4 4 3 4 5 3 5 11 12 13 15 15 14 13 13 13 11 7 6 8 9 14 13 10 19 15 16 16 11 9 8 4 4 7 8 10 11 11 9 8 7 6
5 5 5 4 4 5 7 4 8 9 11 13 13 13 14 15 9 9 7 7 6 11 12 8 21 19 23 19 15 12 8 6 5 7 5 8 11 11 10 9 7 6 4
6 6 4 4 4 5 6 3 7 5 10 9 8 7 10 7 9 10 4 6 5 5 5 4 12 22 20 19 12 13 7 5 8 4 5 11 12 11 10 8 7 4 2
7 6 5 4 4 5 5 7 7 7 7 8 8 10 7 7 7 7 9 6 6 5 3 8 15 10 8 10 6 11 4 5 4 4 6 9 12 11 10 8 5 2 1
7 4 5 5 4 5 6 6 4 5 5 6 9 8 9 6 6 4 4 3 5 6 4 7 8 5 6 7 7 3 5 5 4 5 5 5 11 11 9 6 1 2 6
7 7 6 4 5 4 4 5 6 6 6 6 7 9 6 4 5 5 4 5 4 4 7 8 10 7 10 7 6 5 4 4 4 6 4 6 9 10 7 6 7 8 7
8 8 7 5 5 4 5 5 6 7 7 8 8 8 6 5 5 5 3 4 4 3 5 9 10 10 11 6 6 7 2 5 5 6 5 7 9 9 9 8 8 7 5
7 7 6 5 4 4 5 7 7 7 7 7 7 7 8 4 5 5 3 4 2 2 3 6 10 9 9 9 6 7 5 6 5 8 6 7 10 8 9 10 12 13 12
6 5 4 4 2 4 6 7 7 7 7 7 7 8 6 7 4 6 5 4 3 3 6 5 9 10 9 9 9 5 5 4 6 5 7 6 7 13 12 13 12 15 14
3 1 3 2 1 4 6 6 6 7 6 7 6 6 4 8 4 4 4 4 3 4 5 4 6 7 8 8 9 5 4 3 3 7 4 6 7 7 11 15 14 14 13
2 4 4 2 2 4 6 7 7 7 6 6 6 6 5 9 5 4 3 3 4 2 7 8 4 7 9 7 8 6 4 2 3 4 5 8 8 8 7 15 16 15 14
4 4 2 1 3 5 5 5 5 5 4 5 4 3 6 6 4 6 1 4 3 1 4 6 9 8 10 11 9 7 4 3 5 4 6 7 7 7 5 7 6 8 17
3 3 3 3 3 4 4 5 5 5 5 3 3 5 7 4 3 6 3 3 3 2 6 4 7 11 9 11 8 8 5 7 8 5 6 6 7 6 6 6 5 4 6
2 3 3 2 3 4 4 4 4 6 5 4 3 5 4 4 3 6 4 4 2 2 7 8 4 5 9 11 9 5 3 3 7 7 5 5 6 4 5 7 8 7 5
4 3 2 1 4 4 5 4 4 5 3 3 4 4 4 5 4 5 5 4 2 2 2 10 9 8 7 6 11 4 4 3 3 4 6 4 4 4 5 6 7 7 6
1 3 2 1 3 3 4 4 4 4 4 2 3 4 5 4 5 5 4 4 4 2 4 6 8 5 11 9 6 2 3 5 4 3 2 4 4 5 5 5 5 5 6
4 3 1 1 2 2 3 4 3 4 4 4 3 5 3 3 5 3 4 3 5 3 4 8 9 9 8 8 6 2 4 4 4 4 3 3 3 3 4 4 3 4 4
4 3 1 1 1 2 3 4 4 4 5 5 3 4 4 3 3 4 4 4 5 5 5 4 7 10 9 7 4 3 5 3 3 3 4 3 4 3 2 2 3 4 3
Wind_Direction
45 27 23 4 5 4 2 357 354 357 358 344 319 298 290 279 272 246 218 208 195 192 198 194 184 174 172 153 150 152 150 143 140 128 126 129 126 114 109 105 121 101 88
17 16 31 7 2 3 360 357 352 350 352 356 334 313 288 277 260 252 229 225 218 205 204 203 198 188 177 157 141 152 144 135 121 126 118 120 127 122 107 88 80 100 93
21 10 8 8 359 359 358 356 353 348 346 347 351 329 306 280 272 248 237 230 228 227 221 217 208 191 175 151 143 141 138 130 126 142 152 129 128 126 117 110 108 101 102
25 5 16 360 358 358 355 352 351 347 343 343 348 340 323 303 277 269 251 241 231 226 228 219 210 194 173 156 148 147 146 139 154 179 185 124 129 133 128 121 109 105 105
19 6 34 0 356 355 353 348 349 346 345 339 339 345 329 315 290 274 262 255 246 238 228 225 207 181 165 160 153 151 153 151 172 197 95 94 116 130 123 109 105 90 81
356 360 33 1 353 350 350 348 349 345 345 340 337 340 342 326 323 309 276 262 255 241 237 219 200 174 162 160 155 149 155 163 188 189 105 114 110 107 98 94 96 95 91
317 0 333 5 350 350 347 347 348 346 345 343 334 332 332 333 322 339 345 289 279 256 239 231 196 169 164 154 149 150 157 184 194 129 120 129 114 116 110 111 110 105 100
301 309 308 258 334 331 342 347 349 345 340 336 334 329 332 331 322 309 331 3 348 309 259 235 217 159 153 146 145 146 159 197 195 130 137 113 120 129 118 115 114 109 104
267 276 279 300 317 230 328 345 346 341 337 333 330 326 323 323 310 304 306 328 348 340 305 238 211 131 139 157 142 136 161 220 175 141 148 115 129 133 121 125 119 114 108
264 256 269 286 305 332 332 79 343 329 331 326 319 320 317 306 290 269 264 255 333 349 343 232 159 162 157 160 139 139 175 223 131 146 151 115 143 134 133 128 125 122 107
260 261 256 283 313 330 319 341 292 300 308 304 307 302 291 326 312 322 274 261 231 340 63 36 215 163 152 136 139 138 173 181 140 150 106 136 140 139 132 130 128 127 76
259 250 253 266 305 311 310 333 325 328 330 323 319 315 309 304 311 320 298 237 254 238 178 112 109 114 164 139 163 145 183 161 147 119 120 131 136 134 132 131 135 145 340
278 260 243 267 285 307 330 330 331 330 320 321 313 320 307 302 301 307 307 237 224 207 200 128 126 115 147 143 149 135 135 142 124 105 94 155 132 128 126 125 160 234 104
273 264 261 255 275 306 321 317 324 321 329 306 314 306 308 301 291 309 287 271 271 201 154 137 136 121 106 109 101 115 107 136 150 114 105 127 121 124 114 97 95 104 96
277 276 270 257 272 301 306 320 321 320 313 318 299 301 293 289 298 305 298 293 312 245 162 146 137 143 125 111 114 95 122 138 146 128 111 84 87 105 97 91 89 74 100
273 272 272 245 268 301 308 319 317 309 309 307 302 297 296 291 295 304 310 307 288 26 124 152 136 134 137 120 100 106 112 157 116 121 129 87 77 69 83 79 69 62 89
286 290 273 236 254 304 317 320 313 307 312 302 301 292 317 288 288 297 296 294 242 147 110 127 135 136 139 131 106 85 95 169 134 118 125 128 100 61 67 82 73 67 71
288 282 135 147 264 313 313 313 307 306 301 297 286 295 283 286 288 295 294 312 333 192 132 108 123 131 120 127 116 110 69 78 130 137 136 133 122 103 63 65 71 71 59
111 128 156 176 307 312 313 310 304 299 298 298 300 295 311 279 300 281 302 329 302 233 153 145 145 143 131 127 111 109 99 85 95 102 102 83 92 100 99 76 59 60 65
117 122 137 227 301 313 312 302 306 295 292 302 302 323 280 267 294 286 267 316 302 141 134 160 159 156 141 140 132 117 119 107 90 95 112 89 88 94 103 85 76 59 62
144 176 214 280 325 325 331 327 329 326 315 317 336 293 280 285 297 288 279 296 308 242 148 147 151 146 141 135 130 87 66 59 56 39 71 75 77 65 69 76 70 56 65
196 195 222 283 321 343 334 335 325 312 307 309 278 288 295 297 315 291 258 238 247 251 160 155 168 136 142 157 141 101 133 99 56 45 53 70 76 86 65 71 71 67 61
198 201 213 352 335 346 343 320 344 312 254 259 297 301 318 319 310 281 290 271 262 265 196 160 163 153 145 135 142 119 131 131 119 42 49 61 79 82 84 80 69 62 65
116 124 156 57 325 10 343 325 342 318 311 322 303 306 310 322 313 295 299 289 243 228 238 151 164 149 153 156 153 81 59 128 131 138 86 53 38 51 75 69 67 61 60
134 141 121 90 321 359 340 328 334 324 299 298 292 303 311 7 332 341 312 310 283 240 251 168 164 144 151 158 157 127 107 77 97 132 137 140 95 65 66 62 73 62 54
133 164 162 313 354 1 343 345 332 312 298 299 317 317 345 343 322 330 306 303 274 256 251 179 163 140 160 143 140 138 152 139 153 150 124 135 124 102 85 67 65 72 60